Regional Weather Roundup
Issued by NWS Kansas City/Pleasant Hill, MO

Home | Current Version | Previous Version | Text Only | Print | Product List | Glossary On
Versions: 1 2 3 4 5 6 7 8 9 10 11 12 13 14 15 16 17 18 19 20 21 22 23 24 25 26 27 28 29 30 31 32 33 34 35 36 37 38 39 40 41 42 43 44 45 46 47 48 49 50
000
ASUS43 KEAX 022110
RWREAX

WEATHER ROUNDUP FOR EASTERN KANSAS AND NORTHWEST MISSOURI
NATIONAL WEATHER SERVICE KANSAS CITY/PLEASANT HILL MO
400 PM CDT WED SEP 02 2015

KSZ040-057-103>105-MOZ028-029-037-043-022200-
...KANSAS CITY METROPOLITAN AREA...

CITY           SKY/WX    TMP DP  RH WIND       PRES   REMARKS
K.C. INTL      FAIR      89  67  47 S20G26    29.94F HX  92
K.C. DOWNTOWN  FAIR      90  68  48 S14       29.94F HX  94
LEES SUMMIT    FAIR      88  67  49 S14G22    29.96F HX  91
OLATHE - IXD   FAIR      88  69  53 S15       29.97F HX  92
OLATHE - OJC   FAIR      85  69  58 S18G25    29.96F
LAWRENCE       FAIR      90  68  48 S14G23    29.93F HX  94

$$

MOZ001>008-011>017-020>025-030>033-038>040-044>046-053-054-022200-
...NORTHERN AND CENTRAL MISSOURI...

CITY           SKY/WX    TMP DP  RH WIND       PRES   REMARKS
ST. JOSEPH     FAIR      87  72  60 S14       29.91F HX  93
MOSBY          FAIR      88  64  45 S13       29.94F
WARRENSBURG    FAIR      88  68  51 S13       29.96F HX  91
WHITEMAN AFB   MOSUNNY   91  67  45 SW20      29.95F HX  93
CLINTON        FAIR      90  70  51 S10       29.98F HX  95
SEDALIA        FAIR      91  68  46 S14       29.99F HX  95
WARSAW         NOT AVBL
CHILLICOTHE      N/A     87  71  58 S10       29.94F HX  93
KIRKSVILLE     FAIR      85  69  58 S8        29.97F

$$

MOZ041-047>049-056>058-063>065-088>090-097-022200-
...EASTERN AND SOUTHERN MISSOURI...

CITY           SKY/WX    TMP DP  RH WIND       PRES   REMARKS
ST. LOUIS INTL PTSUNNY   91  62  37 S10       30.00F HX  91
SPIRIT OF STL  FAIR      89  67  47 SW6       29.98F HX  92
COLUMBIA       FAIR      86  70  58 S12       29.98F HX  90
JEFFERSON CITY FAIR      88  67  49 SW8       29.97F HX  91
ROLLA          FAIR      86  66  51 S12       30.00F
OSAGE BEACH    PTSUNNY   90  64  43 S9        30.00F HX  91
SPRINGFIELD    FAIR      88  65  46 S10       30.03F HX  90
BRANSON        MOSUNNY   88  66  48 SE12      30.06F HX  90
JOPLIN         FAIR      88  69  53 S10       30.01F HX  92
WEST PLAINS    FAIR      87  64  46 SW8       30.07F

$$

IAZ060-094-KSZ022-034>040-054-083-096-NEZ052-066-093-022200-
...KANSAS...SOUTHEAST NEBRASKA AND IOWA...

CITY           SKY/WX    TMP DP  RH WIND       PRES   REMARKS
TOPEKA         FAIR      90  67  46 S16G25    29.92F HX  93
MANHATTAN      FAIR      95  64  35 S20G26    29.87F HX  97
EMPORIA        FAIR      90  66  45 S22G29    29.93F HX  92
CHANUTE        FAIR      87  69  54 S17       29.98F HX  91
WICHITA        FAIR      94  63  35 S14G30    29.91F HX  95
OMAHA          FAIR      89  69  51 S18       29.85F HX  93
LINCOLN        FAIR      92  70  48 S15G22    29.84F HX  97
FALLS CITY     FAIR      90  69  50 S16G25    29.88F HX  94
LAMONI         FAIR      85  69  58 SW22G29   29.92F
DES MOINES     FAIR      89  66  46 SW15      29.89F HX  91

$$




USA.gov is the U.S. government's official web portal to all federal, state and local government web resources and services.